Location: Newark
(52.3500°N, 175.9667°E)
Time: 18:08:41
(UTC+00:00)

Altair - Visible Passes

Search period start: 19 April 2021 00:00
Search period end: 29 April 2021 00:00
Orbit: 1501 x 1683 km, 47.2° (Epoch: 19 April)

Date Brightness Start Highest point End Pass type
(mag) Time Alt. Az. Time Alt. Az. Time Alt. Az.
21 Apr 9.1 16:23:56 10° S 16:31:29 25° SE 16:38:51 10° E visible
22 Apr 9.1 15:59:09 10° S 16:06:26 24° SE 16:13:34 10° E visible
23 Apr 9.1 15:34:25 10° S 15:41:24 22° SE 15:48:15 10° E visible
24 Apr 9.2 15:09:44 10° S 15:16:22 20° SE 15:22:54 10° E visible
25 Apr 9.2 14:45:06 10° S 14:51:21 19° SE 14:57:29 10° E visible
26 Apr 9.2 14:20:33 10° SSE 14:26:20 17° SE 14:32:02 10° E visible
27 Apr 9.2 13:56:04 10° SSE 14:01:20 16° SE 14:06:30 10° E visible
27 Apr 8.4 15:54:56 10° SSW 16:04:02 41° SSE 16:12:51 10° E visible
28 Apr 9.2 13:32:07 11° SSE 13:36:19 14° SE 13:40:52 10° E visible
28 Apr 8.4 15:30:07 11° SSW 15:38:56 39° SSE 15:47:40 10° E visible
